Location: Eurasberg
(48.3353°N, 11.0839°E)
Time: 14:00:24
(UTC+00:00)

Timation 1 Rocket - Pass Details

Date: 23 April 2026
Orbit: 895 x 908 km, 70.0° (Epoch: 14 May)

Event Time Altitude Azimuth Distance (km) Brightness Sun altitude
Exits shadow 23:45:34 63° 275° (W) 1,011 4.4 -28.5°
Maximum altitude 23:46:04 66° 303° (WNW) 990 4.5 -28.5°
Drops below altitude 10° 23:52:04 10° 26° (NNE) 2,603 7.6 -28.3°
Sets 23:54:37 0° 29° (NNE) 3,548 8.5 -28.2°
